Location: Monfort
(47.1967°N, 0.2115°W)
Time: 12:09:07
(UTC+00:00)

Cosmos 1346 Rocket - Pass Details

Date: 24 October 2020
Orbit: 535 x 543 km, 81.2° (Epoch: 27 November)

Event Time Altitude Azimuth Distance (km) Brightness Sun altitude
Rises 18:06:59 0° 360° (N) 2,714 6.3 -12.6°
Reaches altitude 10° 18:09:32 10° 16° (NNE) 1,818 5.3 -13.0°
Maximum altitude 18:12:44 22° 68° (ENE) 1,205 4.0 -13.5°
Enters shadow 18:13:03 22° 76° (ENE) 1,212 3.9 -13.6°
